Schneifelwetter: Wetterstation Hallschlag, 537 m . NN
Wetterdaten: Dienstag, 05.04.2011
Datum Zeit Temp. A. Feuchte A. Luftdruck Regen Wind Richtung Richtung Sonnenschein Helligkeit T Regen Taupunkt Windchill
05.04.2011 00:10 4,3 C 87 % 1023 hPa 0,0 l/m 8,7 km/h (2 Bft) W22.5 260 0 min 0 lux 0,00 min 2,3 C 2,3 C
05.04.2011 00:25 4,1 C 88 % 1023 hPa 0,0 l/m 9,0 km/h (2 Bft) W-SW22.5 255 0 min 0 lux 0,00 min 2,3 C 1,8 C
05.04.2011 00:40 3,8 C 87 % 1023 hPa 0,0 l/m 9,5 km/h (2 Bft) W22.5 260 0 min 0 lux 0,00 min 1,8 C 1,1 C
05.04.2011 00:55 3,3 C 87 % 1023 hPa 0,0 l/m 7,7 km/h (2 Bft) W-SW 255 0 min 0 lux 0,00 min 1,3 C 2,1 C
05.04.2011 01:10 2,9 C 88 % 1023 hPa 0,0 l/m 7,4 km/h (2 Bft) W-SW22.5 240 0 min 0 lux 0,00 min 1,1 C 1,9 C
05.04.2011 01:25 2,5 C 88 % 1023 hPa 0,0 l/m 5,2 km/h (1 Bft) W22.5 270 0 min 0 lux 0,00 min 0,7 C 2,5 C
05.04.2011 01:40 2,0 C 88 % 1023 hPa 0,0 l/m 5,9 km/h (2 Bft) W-SW 250 0 min 0 lux 0,00 min 0,2 C 2,0 C
05.04.2011 01:55 1,5 C 88 % 1023 hPa 0,0 l/m 4,5 km/h (1 Bft) W-SW 245 0 min 0 lux 0,00 min -0,3 C 1,5 C
05.04.2011 02:10 1,1 C 89 % 1023 hPa 0,0 l/m 0,0 km/h (0 Bft) W-SW 245 0 min 0 lux 0,00 min -0,5 C 1,1 C
05.04.2011 02:25 0,7 C 89 % 1023 hPa 0,0 l/m 0,1 km/h (0 Bft) W-SW 245 0 min 0 lux 0,00 min -0,9 C 0,7 C
05.04.2011 02:40 0,5 C 90 % 1023 hPa 0,0 l/m 0,0 km/h (0 Bft) W-SW 245 0 min 0 lux 0,00 min -0,9 C 0,5 C
05.04.2011 02:55 0,3 C 90 % 1023 hPa 0,0 l/m 0,0 km/h (0 Bft) W-SW 245 0 min 0 lux 0,00 min -1,1 C 0,3 C
05.04.2011 03:10 0,3 C 91 % 1022 hPa 0,0 l/m 4,3 km/h (1 Bft) W-SW 245 0 min 0 lux 0,00 min -1,0 C 0,3 C
05.04.2011 03:25 0,2 C 91 % 1022 hPa 0,0 l/m 0,0 km/h (0 Bft) W-SW 245 0 min 0 lux 0,00 min -1,1 C 0,2 C
05.04.2011 03:40 0,1 C 91 % 1022 hPa 0,0 l/m 2,0 km/h (1 Bft) W-SW 245 0 min 0 lux 0,00 min -1,2 C 0,1 C
05.04.2011 03:56 -0,2 C 90 % 1022 hPa 0,0 l/m 0,3 km/h (0 Bft) W-SW 250 0 min 0 lux 0,00 min -1,6 C -0,2 C
05.04.2011 04:11 -0,4 C 91 % 1023 hPa 0,0 l/m 3,4 km/h (1 Bft) SW 235 0 min 0 lux 0,00 min -1,7 C -0,4 C
05.04.2011 04:26 -0,5 C 91 % 1022 hPa 0,0 l/m 3,3 km/h (1 Bft) SW 235 0 min 0 lux 0,00 min -1,8 C -0,5 C
05.04.2011 04:41 -0,7 C 91 % 1022 hPa 0,0 l/m 0,0 km/h (0 Bft) SW 235 0 min 0 lux 0,00 min -2,0 C -0,7 C
05.04.2011 04:56 -1,0 C 91 % 1022 hPa 0,0 l/m 0,0 km/h (0 Bft) SW 235 0 min 0 lux 0,00 min -2,3 C -1,0 C
05.04.2011 05:11 -1,3 C 92 % 1023 hPa 0,0 l/m 0,0 km/h (0 Bft) SW 235 0 min 0 lux 0,00 min -2,4 C -1,3 C
05.04.2011 05:26 -1,4 C 92 % 1023 hPa 0,0 l/m 0,0 km/h (0 Bft) SW 235 0 min 0 lux 0,00 min -2,5 C -1,4 C
05.04.2011 05:41 -1,6 C 92 % 1023 hPa 0,0 l/m 0,0 km/h (0 Bft) SW 235 0 min 0 lux 0,00 min -2,7 C -1,6 C
05.04.2011 05:56 -1,6 C 92 % 1023 hPa 0,0 l/m 0,0 km/h (0 Bft) SW 235 0 min 0 lux 0,00 min -2,7 C -1,6 C
05.04.2011 06:11 -1,8 C 92 % 1023 hPa 0,0 l/m 0,0 km/h (0 Bft) SW 235 0 min 0 lux 0,00 min -2,9 C -1,8 C
05.04.2011 06:26 -2,0 C 92 % 1023 hPa 0,0 l/m 0,0 km/h (0 Bft) SW 235 0 min 0 lux 0,00 min -3,1 C -2,0 C
05.04.2011 06:41 -2,0 C 93 % 1023 hPa 0,0 l/m 4,9 km/h (1 Bft) W-SW 240 0 min 41 lux 0,00 min -3,0 C -2,0 C
05.04.2011 06:56 -1,6 C 94 % 1023 hPa 0,0 l/m 7,6 km/h (2 Bft) W 265 0 min 597 lux 0,00 min -2,4 C -2,9 C
05.04.2011 07:11 -1,0 C 94 % 1023 hPa 0,0 l/m 8,7 km/h (2 Bft) W-SW 255 0 min 3,49 klux 0,00 min -1,8 C -3,4 C
05.04.2011 07:26 -0,3 C 94 % 1023 hPa 0,0 l/m 13,1 km/h (3 Bft) W-SW 250 0 min 8,45 klux 0,00 min -1,1 C -6,1 C
05.04.2011 07:41 0,3 C 95 % 1024 hPa 0,0 l/m 16,6 km/h (3 Bft) W-SW22.5 255 0 min 6,13 klux 0,00 min -0,4 C -7,5 C
05.04.2011 08:02 0,9 C 95 % 1024 hPa 0,0 l/m 15,9 km/h (3 Bft) W22.5 265 0 min 12,1 klux 0,00 min 0,2 C -6,4 C
05.04.2011 08:17 1,2 C 95 % 1024 hPa 0,0 l/m 14,1 km/h (3 Bft) W-SW22.5 255 0 min 19,4 klux 0,00 min 0,5 C -5,0 C
05.04.2011 08:31 2,0 C 95 % 1024 hPa 0,0 l/m 15,0 km/h (3 Bft) W22.5 260 0 min 17,9 klux 0,00 min 1,3 C -4,6 C
05.04.2011 08:47 2,7 C 94 % 1024 hPa 0,3 l/m 13,6 km/h (3 Bft) W-SW22.5 255 0 min 22,6 klux 16,00 min 1,8 C -2,9 C
05.04.2011 09:02 3,4 C 95 % 1024 hPa 0,0 l/m 14,5 km/h (3 Bft) W-SW22.5 255 0 min 23,1 klux 0,00 min 2,7 C -2,6 C
05.04.2011 09:17 4,2 C 94 % 1024 hPa 0,0 l/m 14,1 km/h (3 Bft) W-SW22.5 255 0 min 19,4 klux 0,00 min 3,3 C -1,4 C
05.04.2011 09:32 5,2 C 91 % 1024 hPa 0,0 l/m 17,0 km/h (3 Bft) S-SW45 210 0 min 20,2 klux 0,00 min 3,9 C -1,6 C
05.04.2011 09:47 6,3 C 88 % 1023 hPa 0,0 l/m 20,6 km/h (4 Bft) W-SW45 240 0 min 21,3 klux 0,00 min 4,5 C -1,7 C
05.04.2011 10:02 7,2 C 85 % 1023 hPa 0,0 l/m 29,1 km/h (5 Bft) SW45 220 0 min 26,5 klux 0,00 min 4,9 C -3,1 C
05.04.2011 10:16 8,2 C 84 % 1023 hPa 0,0 l/m 22,0 km/h (4 Bft) W-SW45 250 0 min 42,7 klux 0,00 min 5,7 C 0,3 C
05.04.2011 10:32 8,8 C 80 % 1023 hPa 0,0 l/m 25,8 km/h (4 Bft) W-SW45 240 0 min 37,8 klux 0,00 min 5,5 C -0,0 C
05.04.2011 10:47 9,2 C 78 % 1023 hPa 0,0 l/m 33,9 km/h (5 Bft) SW45 235 0 min 47,5 klux 0,00 min 5,6 C -1,3 C
05.04.2011 11:02 9,4 C 76 % 1023 hPa 0,0 l/m 30,1 km/h (5 Bft) W-SW45 240 0 min 43,7 klux 0,00 min 5,4 C -0,2 C
05.04.2011 11:17 9,9 C 73 % 1024 hPa 0,0 l/m 36,1 km/h (5 Bft) W45 260 0 min 49,6 klux 0,00 min 5,3 C -0,6 C
05.04.2011 11:32 9,8 C 74 % 1024 hPa 0,0 l/m 38,6 km/h (5 Bft) W-SW45 250 0 min 42,6 klux 0,00 min 5,4 C -1,2 C
05.04.2011 11:47 9,9 C 72 % 1024 hPa 0,0 l/m 38,1 km/h (5 Bft) W-SW45 250 0 min 39,3 klux 0,00 min 5,1 C -1,0 C
05.04.2011 12:01 9,8 C 72 % 1024 hPa 0,0 l/m 34,8 km/h (5 Bft) W-SW22.5 255 0 min 33,3 klux 0,00 min 5,0 C -0,6 C
05.04.2011 12:17 9,6 C 72 % 1024 hPa 0,0 l/m 36,0 km/h (5 Bft) W-SW45 255 0 min 31,4 klux 0,00 min 4,8 C -1,1 C
05.04.2011 12:32 9,9 C 72 % 1024 hPa 0,0 l/m 37,0 km/h (5 Bft) W-SW22.5 255 0 min 38,9 klux 0,00 min 5,1 C -0,8 C
05.04.2011 12:47 10,2 C 72 % 1024 hPa 0,0 l/m 33,9 km/h (5 Bft) W-SW45 250 0 min 38,1 klux 0,00 min 5,4 C 0,2 C
05.04.2011 13:02 10,5 C 70 % 1024 hPa 0,0 l/m 38,2 km/h (5 Bft) W-SW45 240 0 min 44,1 klux 0,00 min 5,3 C -0,1 C
05.04.2011 13:17 10,5 C 70 % 1023 hPa 0,0 l/m 36,4 km/h (5 Bft) W-SW45 250 0 min 37,6 klux 0,00 min 5,3 C 0,2 C
05.04.2011 13:31 11,0 C 70 % 1023 hPa 0,0 l/m 37,4 km/h (5 Bft) SW45 230 0 min 51,5 klux 0,00 min 5,7 C 0,8 C
05.04.2011 13:47 11,6 C 68 % 1023 hPa 0,0 l/m 29,1 km/h (5 Bft) W-SW45 250 16 min 55,7 klux 0,00 min 5,9 C 3,1 C
05.04.2011 14:02 11,6 C 66 % 1023 hPa 0,0 l/m 40,6 km/h (6 Bft) W-SW45 250 0 min 44,3 klux 0,00 min 5,5 C 1,2 C
05.04.2011 14:17 11,6 C 67 % 1023 hPa 0,0 l/m 31,0 km/h (5 Bft) SW45 225 0 min 43,3 klux 0,00 min 5,7 C 2,7 C
05.04.2011 14:32 11,9 C 65 % 1023 hPa 0,0 l/m 33,7 km/h (5 Bft) W-SW67.5 250 0 min 42,6 klux 0,00 min 5,5 C 2,7 C
05.04.2011 14:47 11,6 C 66 % 1023 hPa 0,0 l/m 37,5 km/h (5 Bft) W-SW45 250 0 min 27,0 klux 0,00 min 5,5 C 1,6 C
05.04.2011 15:02 11,2 C 66 % 1024 hPa 0,0 l/m 33,7 km/h (5 Bft) W-SW22.5 250 0 min 24,8 klux 0,00 min 5,1 C 1,7 C
05.04.2011 15:16 11,2 C 67 % 1023 hPa 0,0 l/m 31,7 km/h (5 Bft) W-SW45 240 0 min 29,9 klux 0,00 min 5,3 C 2,0 C
05.04.2011 15:32 11,9 C 63 % 1023 hPa 0,0 l/m 33,1 km/h (5 Bft) W-SW45 240 0 min 40,6 klux 0,00 min 5,1 C 2,8 C
05.04.2011 15:47 12,2 C 62 % 1023 hPa 0,0 l/m 36,9 km/h (5 Bft) W-SW45 250 0 min 43,7 klux 0,00 min 5,1 C 2,6 C
05.04.2011 16:02 12,4 C 61 % 1023 hPa 0,0 l/m 34,4 km/h (5 Bft) W-SW45 250 0 min 46,2 klux 0,00 min 5,1 C 3,3 C
05.04.2011 16:17 12,6 C 60 % 1023 hPa 0,0 l/m 33,5 km/h (5 Bft) W-SW45 250 0 min 42,9 klux 0,00 min 5,0 C 3,7 C
05.04.2011 16:32 12,2 C 62 % 1023 hPa 0,0 l/m 41,0 km/h (6 Bft) W22.5 260 0 min 39,6 klux 0,00 min 5,1 C 2,0 C
05.04.2011 16:47 12,4 C 63 % 1023 hPa 0,0 l/m 46,3 km/h (6 Bft) W22.5 260 15 min 55,2 klux 0,00 min 5,6 C 1,7 C
05.04.2011 17:01 12,3 C 62 % 1023 hPa 0,0 l/m 46,3 km/h (6 Bft) W-SW45 250 0 min 41,8 klux 0,00 min 5,2 C 1,6 C
05.04.2011 17:17 12,0 C 63 % 1023 hPa 0,0 l/m 39,5 km/h (6 Bft) W-SW22.5 255 0 min 24,5 klux 0,00 min 5,2 C 1,9 C
05.04.2011 17:32 11,8 C 64 % 1023 hPa 0,0 l/m 36,0 km/h (5 Bft) W22.5 260 0 min 21,3 klux 0,00 min 5,2 C 2,1 C
05.04.2011 17:47 11,4 C 65 % 1023 hPa 0,0 l/m 34,6 km/h (5 Bft) W-SW45 250 0 min 15,3 klux 0,00 min 5,1 C 1,8 C
05.04.2011 18:02 10,9 C 67 % 1023 hPa 0,0 l/m 30,9 km/h (5 Bft) W-SW45 255 0 min 8,45 klux 0,00 min 5,0 C 1,7 C
05.04.2011 18:17 10,6 C 66 % 1023 hPa 0,0 l/m 39,2 km/h (6 Bft) W22.5 260 0 min 6,88 klux 0,00 min 4,5 C -0,1 C
05.04.2011 18:31 10,0 C 69 % 1023 hPa 0,0 l/m 37,9 km/h (5 Bft) W22.5 265 0 min 5,12 klux 0,00 min 4,6 C -0,8 C
05.04.2011 18:47 9,5 C 71 % 1023 hPa 0,0 l/m 30,5 km/h (5 Bft) W-SW45 255 0 min 4,67 klux 0,00 min 4,5 C -0,2 C
05.04.2011 19:02 8,9 C 74 % 1024 hPa 0,0 l/m 26,8 km/h (4 Bft) W-SW22.5 250 0 min 3,44 klux 0,00 min 4,5 C -0,1 C
05.04.2011 19:17 8,2 C 76 % 1024 hPa 0,0 l/m 27,3 km/h (4 Bft) W22.5 260 0 min 3,28 klux 0,00 min 4,2 C -1,2 C
05.04.2011 19:32 7,8 C 78 % 1024 hPa 0,0 l/m 22,5 km/h (4 Bft) W22.5 260 0 min 2,41 klux 0,00 min 4,2 C -0,4 C
05.04.2011 19:47 7,5 C 80 % 1024 hPa 0,0 l/m 24,3 km/h (4 Bft) W22.5 260 0 min 1,42 klux 0,00 min 4,3 C -1,4 C
05.04.2011 20:02 7,2 C 81 % 1024 hPa 0,0 l/m 20,1 km/h (4 Bft) W-SW45 250 0 min 791 lux 0,00 min 4,2 C -0,4 C
05.04.2011 20:16 7,0 C 82 % 1024 hPa 0,0 l/m 23,1 km/h (4 Bft) W-SW22.5 255 0 min 365 lux 0,00 min 4,1 C -1,7 C
05.04.2011 20:32 6,9 C 85 % 1024 hPa 0,0 l/m 22,9 km/h (4 Bft) W-SW22.5 255 0 min 64 lux 0,00 min 4,6 C -1,7 C
05.04.2011 20:47 6,8 C 85 % 1024 hPa 0,0 l/m 16,7 km/h (3 Bft) W-SW22.5 250 0 min 13 lux 0,00 min 4,5 C 0,5 C
05.04.2011 21:02 6,8 C 86 % 1024 hPa 0,0 l/m 19,2 km/h (3 Bft) W-SW22.5 255 0 min 0 lux 0,00 min 4,6 C -0,5 C
05.04.2011 21:17 6,8 C 86 % 1025 hPa 0,0 l/m 14,8 km/h (3 Bft) W-SW22.5 245 0 min 0 lux 0,00 min 4,6 C 1,4 C
05.04.2011 21:32 6,8 C 87 % 1025 hPa 0,0 l/m 18,7 km/h (3 Bft) SW45 230 0 min 0 lux 0,00 min 4,8 C -0,3 C
05.04.2011 21:46 6,8 C 87 % 1025 hPa 0,0 l/m 15,7 km/h (3 Bft) W-SW 255 0 min 0 lux 0,00 min 4,8 C 0,9 C
05.04.2011 22:02 6,8 C 87 % 1025 hPa 0,0 l/m 15,8 km/h (3 Bft) W-SW22.5 255 0 min 0 lux 0,00 min 4,8 C 0,9 C
05.04.2011 22:17 6,9 C 87 % 1025 hPa 0,0 l/m 18,8 km/h (3 Bft) W22.5 260 0 min 0 lux 0,00 min 4,9 C -0,3 C
05.04.2011 22:32 6,9 C 87 % 1025 hPa 0,0 l/m 23,4 km/h (4 Bft) W22.5 260 0 min 0 lux 0,00 min 4,9 C -1,9 C
05.04.2011 22:47 6,9 C 88 % 1025 hPa 0,0 l/m 24,4 km/h (4 Bft) W22.5 260 0 min 0 lux 0,00 min 5,1 C -2,2 C
05.04.2011 23:02 6,9 C 88 % 1025 hPa 0,0 l/m 27,1 km/h (4 Bft) W-SW22.5 250 0 min 0 lux 0,00 min 5,1 C -3,0 C
05.04.2011 23:17 7,0 C 89 % 1025 hPa 0,0 l/m 29,3 km/h (5 Bft) W22.5 260 0 min 0 lux 0,00 min 5,3 C -3,4 C
05.04.2011 23:31 7,0 C 89 % 1025 hPa 0,0 l/m 29,2 km/h (5 Bft) W-SW22.5 250 0 min 0 lux 0,00 min 5,3 C -3,4 C
05.04.2011 23:47 6,9 C 89 % 1025 hPa 0,0 l/m 19,1 km/h (3 Bft) W-SW22.5 255 0 min 0 lux 0,00 min 5,2 C -0,4 C
_ Min-Zeit 06:26 16:17 03:10 - 02:10 - - - - - 06:26 07:41
Minimum _ -2,0 C 60 % 1022 hPa - 0,0 km/h (0 Bft) - - - - - -3,1 C -7,5 C
_ Max-Zeit 16:17 07:41 21:17 08:47 16:47 - - 13:47 13:47 08:47 13:47 16:17
Maximum _ 12,6 C 95 % 1025 hPa 0,3 l/m 46,3 km/h
W (6 Bft)
- - 16 min 55,7 klux 16,00 min 5,9 C 3,7 C
Durchschnitt _ 6,0 C 81 % 1024 hPa #0,3 l/m 20,5 km/h (4 Bft) W-SW - #31 min. 15,3 klux #16 min. 2,8 C -0,3 C